| time (UTC) | temp F | wind direction | speed knots | gust knots | rain 1hr in | rain 24hr in | rain mn in | humidity % | barometer mb |
| 20260506231600 | 80 | 273 | 2.6 | 8.7 | 0.00 | 0.01 | 0.01 | 63 | 1011.5 |
| 20260506230054 | 81 | 184 | 3.5 | 10.4 | 0.00 | 0.01 | 0.01 | 66 | 1011.2 |
| 20260506224554 | 82 | 49 | 2.6 | 8.7 | 0.00 | 0.01 | 0.01 | 68 | 1011.1 |
| 20260506223053 | 82 | 5 | 2.6 | 9.6 | 0.00 | 0.01 | 0.01 | 68 | 1011.0 |
| 20260506221553 | 82 | 274 | 2.6 | 7.8 | 0.00 | 0.01 | 0.01 | 67 | 1010.9 |
| 20260506220054 | 83 | 326 | 2.6 | 8.7 | 0.00 | 0.01 | 0.01 | 66 | 1010.9 |
| 20260506214554 | 86 | 288 | 4.3 | 8.7 | 0.00 | 0.01 | 0.01 | 61 | 1010.7 |
| 20260506213109 | 87 | 0 | 0.0 | 0.0 | 0.00 | 0.01 | 0.01 | 60 | 1010.6 |
| 20260506211549 | 89 | 0 | 0.0 | 0.0 | 0.00 | 0.01 | 0.01 | 59 | 1010.7 |
| 20260506210049 | 87 | 0 | 0.0 | 0.9 | 0.00 | 0.01 | 0.01 | 63 | 1010.8 |
| 20260506204550 | 87 | 0 | 0.0 | 0.0 | 0.00 | 0.01 | 0.01 | 62 | 1011.0 |
| 20260506203052 | 88 | 0 | 0.0 | 3.5 | 0.00 | 0.01 | 0.01 | 63 | 1011.1 |
| 20260506201549 | 88 | 0 | 0.0 | 0.0 | 0.00 | 0.01 | 0.01 | 62 | 1011.2 |
| 20260506200048 | 89 | 0 | 0.0 | 0.0 | 0.00 | 0.01 | 0.01 | 61 | 1011.5 |
| 20260506194549 | 86 | 0 | 0.0 | 0.0 | 0.00 | 0.01 | 0.01 | 65 | 1011.6 |
| 20260506193051 | 85 | 62 | 0.0 | 2.6 | 0.00 | 0.01 | 0.01 | 68 | 1011.7 |
| 20260506191555 | 86 | 0 | 0.0 | 0.0 | 0.00 | 0.01 | 0.01 | 68 | 1011.8 |
| 20260506190053 | 85 | 0 | 0.0 | 0.0 | 0.00 | 0.01 | 0.01 | 72 | 1011.9 |
| 20260506184609 | 84 | 0 | 0.0 | 0.0 | 0.00 | 0.01 | 0.01 | 71 | 1012.1 |
| 20260506183103 | 83 | 0 | 0.0 | 0.0 | 0.00 | 0.01 | 0.01 | 75 | 1012.3 |
| 20260506181612 | 82 | 0 | 0.0 | 3.5 | 0.00 | 0.01 | 0.01 | 76 | 1012.5 |
| 20260506180050 | 81 | 0 | 0.0 | 2.6 | 0.00 | 0.01 | 0.01 | 77 | 1012.7 |
| 20260506174548 | 80 | 0 | 0.0 | 2.6 | 0.00 | 0.01 | 0.01 | 78 | 1012.7 |
| 20260506173101 | 79 | 0 | 0.0 | 0.9 | 0.00 | 0.01 | 0.01 | 80 | 1012.7 |
| 20260506171549 | 79 | 0 | 0.0 | 0.0 | 0.00 | 0.01 | 0.01 | 81 | 1012.8 |
| 20260506170055 | 79 | 0 | 0.0 | 0.0 | 0.00 | 0.01 | 0.01 | 82 | 1012.9 |
| 20260506164549 | 77 | 0 | 0.0 | 0.9 | 0.01 | 0.01 | 0.01 | 82 | 1012.9 |
| 20260506163055 | 76 | 0 | 0.0 | 0.0 | 0.01 | 0.01 | 0.01 | 82 | 1012.8 |
| 20260506161550 | 75 | 0 | 0.0 | 0.0 | 0.01 | 0.01 | 0.01 | 77 | 1012.8 |
| 20260506160108 | 75 | 0 | 0.0 | 0.0 | 0.01 | 0.01 | 0.01 | 75 | 1012.6 |
| 20260506154601 | 75 | 0 | 0.0 | 2.6 | 0.00 | 0.00 | 0.00 | 81 | 1012.6 |
| 20260506153108 | 76 | 0 | 0.0 | 0.0 | 0.00 | 0.00 | 0.00 | 82 | 1012.3 |
| 20260506151551 | 77 | 0 | 0.0 | 0.0 | 0.00 | 0.00 | 0.00 | 82 | 1012.0 |
| 20260506150100 | 77 | 0 | 0.0 | 0.0 | 0.00 | 0.00 | 0.00 | 82 | 1011.8 |
| 20260506144556 | 76 | 0 | 0.0 | 0.0 | 0.00 | 0.00 | 0.00 | 82 | 1011.8 |
| 20260506143050 | 76 | 0 | 0.0 | 0.0 | 0.00 | 0.00 | 0.00 | 82 | 1011.6 |
| 20260506141553 | 76 | 0 | 0.0 | 0.0 | 0.00 | 0.00 | 0.00 | 82 | 1011.4 |
| 20260506140054 | 75 | 0 | 0.0 | 0.0 | 0.00 | 0.00 | 0.00 | 82 | 1011.1 |
| 20260506134554 | 75 | 0 | 0.0 | 0.9 | 0.00 | 0.00 | 0.00 | 81 | 1010.8 |
| 20260506133048 | 75 | 0 | 0.0 | 2.6 | 0.00 | 0.00 | 0.00 | 81 | 1010.5 |
| 20260506131554 | 75 | 0 | 0.0 | 3.5 | 0.00 | 0.00 | 0.00 | 81 | 1010.5 |
| 20260506130050 | 75 | 0 | 0.0 | 3.5 | 0.00 | 0.00 | 0.00 | 80 | 1010.2 |
| 20260506124550 | 74 | 72 | 0.0 | 1.7 | 0.00 | 0.00 | 0.00 | 78 | 1010.3 |
| 20260506123051 | 74 | 0 | 0.0 | 0.9 | 0.00 | 0.00 | 0.00 | 78 | 1010.3 |
| 20260506121555 | 74 | 0 | 0.0 | 0.0 | 0.00 | 0.00 | 0.00 | 78 | 1010.3 |
| 20260506120053 | 74 | 0 | 0.0 | 0.0 | 0.00 | 0.00 | 0.00 | 78 | 1010.3 |
| 20260506114553 | 74 | 0 | 0.0 | 0.0 | 0.00 | 0.00 | 0.00 | 78 | 1010.2 |
| 20260506113056 | 74 | 0 | 0.0 | 0.0 | 0.00 | 0.00 | 0.00 | 79 | 1010.1 |
| 20260506111547 | 74 | 0 | 0.0 | 0.0 | 0.00 | 0.00 | 0.00 | 79 | 1010.3 |
| 20260506110054 | 74 | 0 | 0.0 | 0.0 | 0.00 | 0.00 | 0.00 | 79 | 1010.2 |
| 20260506104555 | 74 | 0 | 0.0 | 0.0 | 0.00 | 0.00 | 0.00 | 80 | 1010.1 |
| 20260506103056 | 75 | 0 | 0.0 | 0.0 | 0.00 | 0.00 | 0.00 | 80 | 1009.9 |
| 20260506101552 | 74 | 0 | 0.0 | 0.0 | 0.00 | 0.00 | 0.00 | 80 | 1010.0 |
| 20260506100055 | 74 | 0 | 0.0 | 0.0 | 0.00 | 0.00 | 0.00 | 80 | 1009.9 |
| 20260506094552 | 74 | 0 | 0.0 | 0.0 | 0.00 | 0.00 | 0.00 | 79 | 1010.0 |
| 20260506093053 | 74 | 0 | 0.0 | 0.0 | 0.00 | 0.00 | 0.00 | 79 | 1009.9 |
| 20260506091558 | 74 | 0 | 0.0 | 0.0 | 0.00 | 0.00 | 0.00 | 79 | 1009.9 |
| 20260506090059 | 74 | 0 | 0.0 | 0.0 | 0.00 | 0.00 | 0.00 | 79 | 1010.1 |
| 20260506084552 | 75 | 0 | 0.0 | 0.0 | 0.00 | 0.00 | 0.00 | 81 | 1010.0 |
| 20260506083056 | 75 | 0 | 0.0 | 0.0 | 0.00 | 0.00 | 0.00 | 82 | 1010.2 |
| 20260506081557 | 75 | 0 | 0.0 | 0.0 | 0.00 | 0.00 | 0.00 | 82 | 1010.2 |
| 20260506080104 | 75 | 0 | 0.0 | 0.9 | 0.00 | 0.00 | 0.00 | 82 | 1010.2 |
| 20260506073054 | 75 | 0 | 0.0 | 0.0 | 0.00 | 0.00 | 0.00 | 82 | 1010.2 |
| 20260506071602 | 75 | 0 | 0.0 | 0.0 | 0.00 | 0.00 | 0.00 | 82 | 1010.3 |
| 20260506061549 | 76 | 57 | 0.0 | 4.3 | 0.00 | 0.00 | 0.00 | 82 | 1010.4 |
| 20260506044553 | 77 | 59 | 0.9 | 5.2 | 0.00 | 0.00 | 0.00 | 82 | 1010.2 |
| 20260506043048 | 77 | 0 | 0.0 | 2.6 | 0.00 | 0.00 | 0.00 | 82 | 1010.2 |
| 20260506041550 | 77 | 55 | 0.9 | 3.5 | 0.00 | 0.00 | 0.00 | 82 | 1010.0 |
| 20260506040051 | 78 | 0 | 0.9 | 5.2 | 0.00 | 0.00 | 0.00 | 82 | 1009.9 |
| 20260506034603 | 78 | 61 | 0.9 | 6.1 | 0.00 | 0.00 | 0.00 | 81 | 1009.8 |
| 20260506033051 | 79 | 0 | 0.9 | 5.2 | 0.00 | 0.00 | 0.00 | 81 | 1009.6 |
| 20260506031552 | 79 | 0 | 0.0 | 6.1 | 0.00 | 0.00 | 0.00 | 80 | 1009.5 |
| 20260506030048 | 80 | 0 | 0.0 | 3.5 | 0.00 | 0.00 | 0.00 | 79 | 1009.3 |
| 20260506024607 | 80 | 0 | 0.0 | 3.5 | 0.00 | 0.00 | 0.00 | 78 | 1009.1 |
| 20260506023051 | 81 | 0 | 0.0 | 5.2 | 0.00 | 0.00 | 0.00 | 77 | 1008.8 |
| 20260506021552 | 82 | 0 | 0.0 | 3.5 | 0.00 | 0.00 | 0.00 | 74 | 1008.7 |
| 20260506020049 | 83 | 0 | 0.0 | 4.3 | 0.00 | 0.00 | 0.00 | 72 | 1008.6 |
| 20260506014551 | 83 | 0 | 0.0 | 2.6 | 0.00 | 0.00 | 0.00 | 71 | 1008.1 |
| 20260506013107 | 84 | 0 | 0.0 | 0.0 | 0.00 | 0.00 | 0.00 | 71 | 1007.8 |
| 20260506011604 | 84 | 0 | 0.0 | 0.0 | 0.00 | 0.00 | 0.00 | 70 | 1007.6 |
| 20260506010056 | 84 | 0 | 0.0 | 0.0 | 0.00 | 0.00 | 0.00 | 69 | 1007.4 |
| 20260506004556 | 85 | 0 | 0.0 | 0.0 | 0.00 | 0.00 | 0.00 | 68 | 1007.3 |
| 20260506003049 | 86 | 0 | 0.0 | 0.0 | 0.00 | 0.00 | 0.00 | 67 | 1007.3 |
| 20260506001556 | 87 | 0 | 0.0 | 0.0 | 0.00 | 0.00 | 0.00 | 65 | 1007.3 |
| 20260506000101 | 87 | 0 | 0.0 | 0.0 | 0.00 | 0.00 | 0.00 | 65 | 1007.2 |
| 20260505234559 | 89 | 0 | 0.0 | 0.0 | 0.00 | 0.00 | 0.00 | 62 | 1007.2 |
| 20260505233054 | 89 | 0 | 0.0 | 0.0 | 0.00 | 0.00 | 0.00 | 62 | 1007.2 |